GW0655 Weather Reports


Display with metric or nautical units.
time (UTC)temp
F
wind
direction
speed
MPH
gust
MPH
rain 1hr
in
rain 24hr
in
rain mn
in
humidity
%
barometer
mb
20260903180513 96 192 1.0 1.0 0.00 0.00 0.00 49 1014.5
20260903180012 96 229 2.0 5.0 0.00 0.00 0.00 49 1014.5
20260903175511 96 287 2.0 2.0 0.00 0.00 0.00 49 1014.5
20260903175010 97 264 5.0 8.0 0.00 0.00 0.00 48 1014.8
20260903174506 95 196 3.0 3.0 0.00 0.00 0.00 49 1014.8
20260903174000 96 184 4.0 6.0 0.00 0.00 0.00 49 1014.8
20260903173455 95 202 1.0 2.0 0.00 0.00 0.00 51 1014.8
20260903172951 95 179 2.0 5.0 0.00 0.00 0.00 52 1015.2
20260903172446 94 195 5.0 7.0 0.00 0.00 0.00 53 1014.8
20260903171942 95 233 4.0 6.0 0.00 0.00 0.00 52 1015.2
20260903171437 95 217 5.0 7.0 0.00 0.00 0.00 53 1015.2
20260903170936 95 203 5.0 7.0 0.00 0.00 0.00 53 1014.8
20260903170431 95 166 2.0 3.0 0.00 0.00 0.00 53 1015.2
20260903165930 95 228 9.0 9.0 0.00 0.00 0.00 54 1015.2
20260903165425 93 312 1.0 1.0 0.00 0.00 0.00 55 1015.2
20260903164925 94 234 6.0 8.0 0.00 0.00 0.00 55 1015.2
20260903164419 95 173 3.0 5.0 0.00 0.00 0.00 54 1015.2
20260903163914 92 224 2.0 3.0 0.00 0.00 0.00 58 1015.2
20260903163410 93 241 8.0 11.0 0.00 0.00 0.00 56 1015.2
20260903162906 92 218 5.0 6.0 0.00 0.00 0.00 58 1015.5
20260903162402 91 248 4.0 8.0 0.00 0.00 0.00 58 1015.5
20260903161857 92 261 3.0 7.0 0.00 0.00 0.00 57 1015.2
20260903161352 92 197 9.0 14.0 0.00 0.00 0.00 58 1015.5
20260903160848 92 182 7.0 8.0 0.00 0.00 0.00 58 1015.2
20260903160347 92 236 4.0 6.0 0.00 0.00 0.00 58 1015.2
20260903155846 92 184 4.0 5.0 0.00 0.00 0.00 61 1015.2
20260903155342 91 200 8.0 9.0 0.00 0.00 0.00 60 1015.2
20260903154836 89 182 3.0 5.0 0.00 0.00 0.00 64 1015.2
20260903154333 89 186 3.0 5.0 0.00 0.00 0.00 64 1015.2
20260903153827 88 273 1.0 1.0 0.00 0.00 0.00 66 1015.2
20260903153323 88 256 6.0 7.0 0.00 0.00 0.00 66 1015.2
20260903152820 87 229 8.0 10.0 0.00 0.00 0.00 67 1015.5
20260903152315 88 206 7.0 9.0 0.00 0.00 0.00 68 1015.5
20260903151810 87 186 4.0 6.0 0.00 0.00 0.00 68 1015.2
20260903151306 87 221 5.0 6.0 0.00 0.00 0.00 69 1015.5
20260903150806 87 224 2.0 5.0 0.00 0.00 0.00 68 1015.8
20260903150300 87 246 5.0 6.0 0.00 0.00 0.00 68 1015.5
20260903145755 88 219 8.0 11.0 0.00 0.00 0.00 67 1015.2
20260903145250 88 226 3.0 3.0 0.00 0.00 0.00 66 1015.2
20260903144749 89 212 6.0 8.0 0.00 0.00 0.00 67 1015.2
20260903144245 87 201 7.0 11.0 0.00 0.00 0.00 69 1015.2
20260903143741 86 158 3.0 3.0 0.00 0.00 0.00 71 1015.2
20260903143237 85 276 3.0 3.0 0.00 0.00 0.00 73 1015.2
20260903142732 85 282 4.0 6.0 0.00 0.00 0.00 72 1015.2
20260903142228 86 196 4.0 6.0 0.00 0.00 0.00 73 1015.2
20260903141724 86 232 4.0 6.0 0.00 0.00 0.00 72 1015.2
20260903141219 86 192 3.0 3.0 0.00 0.00 0.00 73 1015.2
20260903140714 86 198 4.0 6.0 0.00 0.00 0.00 73 1015.2
20260903140209 85 212 2.0 3.0 0.00 0.00 0.00 75 1015.2
20260903135705 85 236 8.0 10.0 0.00 0.00 0.00 76 1015.5
20260903135200 85 233 5.0 6.0 0.00 0.00 0.00 75 1015.2
20260903134658 85 240 2.0 2.0 0.00 0.00 0.00 76 1015.2
20260903134155 85 265 5.0 6.0 0.00 0.00 0.00 76 1015.5
20260903133653 84 160 4.0 5.0 0.00 0.00 0.00 78 1015.2
20260903133148 84 207 4.0 5.0 0.00 0.00 0.00 78 1015.5
20260903132648 84 188 3.0 5.0 0.00 0.00 0.00 79 1015.2
20260903132143 83 210 5.0 5.0 0.00 0.00 0.00 80 1015.2
20260903131638 83 175 3.0 3.0 0.00 0.00 0.00 80 1015.5
20260903131136 83 199 3.0 5.0 0.00 0.00 0.00 81 1015.5
20260903130631 82 191 4.0 5.0 0.00 0.00 0.00 82 1015.5
20260903130126 82 194 3.0 3.0 0.00 0.00 0.00 83 1015.5
20260903125624 82 208 1.0 2.0 0.00 0.00 0.00 83 1015.5
20260903125120 82 223 2.0 3.0 0.00 0.00 0.00 83 1015.5
20260903124614 82 167 4.0 5.0 0.00 0.00 0.00 84 1015.2
20260903124113 82 211 5.0 7.0 0.00 0.00 0.00 84 1015.5
20260903123608 81 204 4.0 7.0 0.00 0.00 0.00 84 1015.2
20260903123106 81 213 2.0 2.0 0.00 0.00 0.00 84 1015.2
20260903122601 81 241 3.0 3.0 0.00 0.00 0.00 84 1015.2
20260903122100 81 199 3.0 5.0 0.00 0.00 0.00 84 1015.2
20260903121555 81 233 4.0 5.0 0.00 0.00 0.00 84 1015.2
20260903121051 81 192 3.0 6.0 0.00 0.00 0.00 84 1015.2
20260903120549 81 210 3.0 5.0 0.00 0.00 0.00 84 1015.2
20260903120044 82 229 4.0 6.0 0.00 0.00 0.00 83 1014.8
20260903115542 82 156 3.0 5.0 0.00 0.00 0.00 83 1014.8
20260903115037 82 193 1.0 1.0 0.00 0.00 0.00 83 1014.8
20260903114532 82 179 4.0 5.0 0.00 0.00 0.00 83 1015.2
20260903114028 82 224 3.0 5.0 0.00 0.00 0.00 83 1014.8
20260903113524 82 198 3.0 5.0 0.00 0.00 0.00 83 1014.5
20260903113020 82 210 3.0 5.0 0.00 0.00 0.00 83 1014.8
20260903112515 82 193 2.0 3.0 0.00 0.00 0.00 84 1014.5
20260903112015 81 158 1.0 1.0 0.00 0.00 0.00 84 1014.8
20260903111509 81 168 3.0 5.0 0.00 0.00 0.00 84 1014.8
20260903111005 81 164 0.0 1.0 0.00 0.00 0.00 85 1014.8
20260903110501 81 244 2.0 2.0 0.00 0.00 0.00 85 1014.5
20260903110000 81 209 3.0 5.0 0.00 0.00 0.00 85 1014.8
20260903105455 81 178 7.0 9.0 0.00 0.00 0.00 85 1014.8
20260903104950 81 150 4.0 6.0 0.00 0.00 0.00 85 1014.8
20260903104449 81 234 3.0 6.0 0.00 0.00 0.00 85 1014.8
20260903103946 81 218 4.0 5.0 0.00 0.00 0.00 85 1014.5
20260903103442 81 174 3.0 3.0 0.00 0.00 0.00 85 1014.5
20260903102937 81 215 2.0 3.0 0.00 0.00 0.00 85 1014.5
20260903102433 81 202 1.0 1.0 0.00 0.00 0.00 85 1014.5
20260903101931 81 196 5.0 6.0 0.00 0.00 0.00 85 1014.5
20260903101426 81 226 1.0 1.0 0.00 0.00 0.00 85 1014.5
20260903100922 81 220 4.0 6.0 0.00 0.00 0.00 85 1014.5
20260903100417 82 171 3.0 3.0 0.00 0.00 0.00 85 1014.5
20260903095914 81 343 3.0 3.0 0.00 0.00 0.00 85 1014.5
20260903095409 82 183 4.0 5.0 0.00 0.00 0.00 85 1014.5
20260903094903 82 232 3.0 5.0 0.00 0.00 0.00 84 1014.5
20260903094357 82 175 1.0 2.0 0.00 0.00 0.00 84 1014.5
20260903093854 82 218 2.0 2.0 0.00 0.00 0.00 84 1014.5
20260903093348 82 257 1.0 2.0 0.00 0.00 0.00 84 1014.8
20260903092844 82 225 3.0 3.0 0.00 0.00 0.00 84 1014.5
20260903092338 82 170 1.0 2.0 0.00 0.00 0.00 84 1014.8
20260903091837 82 169 3.0 5.0 0.00 0.00 0.00 84 1014.8
20260903091336 82 194 2.0 2.0 0.00 0.00 0.00 84 1014.8
20260903090831 82 214 3.0 6.0 0.00 0.00 0.00 84 1014.8
20260903090327 82 105 1.0 2.0 0.00 0.00 0.00 84 1014.8
20260903085825 82 233 0.0 1.0 0.00 0.00 0.00 84 1014.8
20260903085324 82 256 1.0 3.0 0.00 0.00 0.00 84 1014.8
20260903084823 82 154 1.0 1.0 0.00 0.00 0.00 84 1014.5
20260903084323 82 188 3.0 3.0 0.00 0.00 0.00 84 1014.8
20260903083818 82 228 1.0 1.0 0.00 0.00 0.00 83 1014.8
20260903083314 82 202 4.0 5.0 0.00 0.00 0.00 83 1014.8
20260903082812 82 238 6.0 8.0 0.00 0.00 0.00 83 1014.8
20260903082308 82 154 1.0 1.0 0.00 0.00 0.00 83 1014.8
20260903081803 82 266 1.0 2.0 0.00 0.00 0.00 83 1014.8
20260903081258 82 174 0.0 1.0 0.00 0.00 0.00 83 1014.8
20260903080755 82 224 5.0 6.0 0.00 0.00 0.00 83 1014.8
20260903080252 82 159 4.0 7.0 0.00 0.00 0.00 83 1014.8
20260903075751 82 207 3.0 3.0 0.00 0.00 0.00 82 1014.8
20260903075246 82 171 5.0 8.0 0.00 0.00 0.00 82 1014.8
20260903074745 82 261 0.0 1.0 0.00 0.00 0.00 82 1014.8
20260903074240 82 162 2.0 5.0 0.00 0.00 0.00 81 1014.8
20260903073736 82 162 3.0 5.0 0.00 0.00 0.00 81 1015.2
20260903073231 82 190 2.0 3.0 0.00 0.00 0.00 81 1014.8
20260903072727 82 225 2.0 3.0 0.00 0.00 0.00 81 1015.2
20260903072223 82 219 3.0 3.0 0.00 0.00 0.00 80 1014.8
20260903071720 82 189 4.0 5.0 0.00 0.00 0.00 80 1014.8
20260903071215 82 217 2.0 2.0 0.00 0.00 0.00 80 1015.2
20260903070715 82 247 1.0 2.0 0.00 0.00 0.00 79 1015.2
20260903070210 83 196 3.0 5.0 0.00 0.00 0.00 79 1015.2
20260903065705 83 162 1.0 2.0 0.00 0.00 0.00 79 1015.2
20260903065159 83 197 1.0 1.0 0.00 0.00 0.00 78 1015.2
20260903064658 83 242 3.0 3.0 0.00 0.00 0.00 78 1014.8
20260903064154 83 220 3.0 5.0 0.00 0.00 0.00 78 1015.2
20260903063650 83 205 7.0 7.0 0.00 0.00 0.00 77 1015.2
20260903063150 83 206 5.0 8.0 0.00 0.00 0.00 77 1015.2
20260903062646 83 214 5.0 6.0 0.00 0.00 0.00 76 1015.5
20260903062140 83 219 3.0 3.0 0.00 0.00 0.00 75 1015.2
20260903061636 84 163 6.0 8.0 0.00 0.00 0.00 74 1015.2
20260903061135 84 218 2.0 2.0 0.00 0.00 0.00 74 1015.2
20260903060630 84 144 4.0 5.0 0.00 0.00 0.00 73 1015.2
20260903060126 84 275 2.0 2.0 0.00 0.00 0.00 73 1015.2
20260903055623 84 98 3.0 7.0 0.00 0.00 0.00 72 1015.2
20260903055122 83 173 5.0 6.0 0.00 0.00 0.00 72 1015.2
20260903054616 83 253 1.0 2.0 0.00 0.00 0.00 72 1015.2
20260903054112 83 198 3.0 5.0 0.00 0.00 0.00 72 1015.2
20260903053608 83 274 0.0 1.0 0.00 0.00 0.00 72 1015.2
20260903053104 83 158 1.0 1.0 0.00 0.00 0.00 73 1015.2
20260903052559 83 73 2.0 2.0 0.00 0.00 0.00 73 1015.2
20260903052054 83 216 3.0 3.0 0.00 0.00 0.00 73 1015.2
20260903051549 83 235 1.0 2.0 0.00 0.00 0.00 73 1015.2
20260903051045 83 224 1.0 2.0 0.00 0.00 0.00 73 1015.2
20260903050544 83 218 1.0 2.0 0.00 0.00 0.00 73 1015.2
20260903050039 83 229 1.0 2.0 0.00 0.00 0.00 73 1015.2
20260903045538 83 258 2.0 3.0 0.00 0.00 0.00 73 1015.2
20260903045036 83 275 2.0 3.0 0.00 0.00 0.00 73 1015.2
20260903044531 84 230 3.0 3.0 0.00 0.00 0.00 72 1015.5
20260903044026 84 116 4.0 6.0 0.00 0.00 0.00 72 1015.2
20260903043522 84 152 5.0 7.0 0.00 0.00 0.00 72 1015.2
20260903043021 84 137 6.0 8.0 0.00 0.00 0.00 70 1015.2
20260903042516 84 79 5.0 8.0 0.00 0.00 0.00 69 1014.8
20260903042012 84 151 4.0 5.0 0.00 0.00 0.00 69 1014.8
20260903041509 85 164 3.0 3.0 0.00 0.00 0.00 68 1014.8
20260903041003 84 101 3.0 7.0 0.00 0.00 0.00 69 1014.8
20260903040502 84 167 3.0 3.0 0.00 0.00 0.00 70 1014.8
20260903035959 84 188 2.0 5.0 0.00 0.00 0.00 70 1014.5
20260903035454 84 129 6.0 9.0 0.00 0.00 0.00 71 1014.5
20260903034949 84 156 3.0 3.0 0.00 0.00 0.00 71 1014.5
20260903034444 84 119 4.0 7.0 0.00 0.00 0.00 71 1014.5
20260903033944 84 100 3.0 3.0 0.00 0.00 0.00 71 1014.5
20260903033439 85 140 6.0 8.0 0.00 0.00 0.00 70 1014.5
20260903032934 85 127 5.0 7.0 0.00 0.00 0.00 69 1014.8
20260903032430 85 96 9.0 14.0 0.00 0.00 0.00 68 1014.5
20260903031925 85 80 5.0 7.0 0.00 0.00 0.00 67 1014.5
20260903031425 86 185 2.0 3.0 0.00 0.00 0.00 66 1014.8
20260903030920 86 156 5.0 8.0 0.00 0.00 0.00 65 1014.5
20260903030416 87 142 9.0 11.0 0.00 0.00 0.00 62 1014.5
20260903025912 88 38 7.0 10.0 0.00 0.00 0.00 58 1014.5
20260903025407 88 62 0.0 1.0 0.00 0.00 0.00 58 1014.1
20260903024902 88 197 1.0 2.0 0.00 0.00 0.00 57 1014.1
20260903024356 88 205 2.0 2.0 0.00 0.00 0.00 58 1013.8
20260903023851 88 140 1.0 1.0 0.00 0.00 0.00 58 1013.8
20260903023347 88 87 0.0 1.0 0.00 0.00 0.00 57 1013.5
20260903022842 89 206 2.0 3.0 0.00 0.00 0.00 57 1013.5
20260903022341 88 296 2.0 2.0 0.00 0.00 0.00 57 1013.5
20260903021840 88 116 3.0 5.0 0.00 0.00 0.00 57 1013.1
20260903021336 88 66 2.0 2.0 0.00 0.00 0.00 58 1013.1
20260903020835 88 116 2.0 3.0 0.00 0.00 0.00 58 1012.7
20260903020331 88 189 1.0 2.0 0.00 0.00 0.00 60 1012.7
20260903015825 88 199 1.0 1.0 0.00 0.00 0.00 60 1013.1
20260903015320 87 293 0.0 1.0 0.00 0.00 0.00 61 1012.4
20260903014815 88 85 0.0 0.0 0.00 0.00 0.00 60 1012.7
20260903014310 88 46 0.0 0.0 0.00 0.00 0.00 61 1012.7
20260903013805 88 77 1.0 1.0 0.00 0.00 0.00 61 1012.4
20260903013304 88 41 0.0 0.0 0.00 0.00 0.00 61 1012.4
20260903012803 88 141 0.0 1.0 0.00 0.00 0.00 60 1012.4
20260903012258 89 109 2.0 3.0 0.00 0.00 0.00 58 1012.4
20260903011757 89 70 0.0 0.0 0.00 0.00 0.00 57 1012.7
20260903011256 89 58 1.0 1.0 0.00 0.00 0.00 56 1012.4
20260903010752 90 346 4.0 5.0 0.00 0.00 0.00 56 1012.4
20260903010248 90 331 1.0 1.0 0.00 0.00 0.00 56 1012.4
20260903005746 90 40 1.0 1.0 0.00 0.00 0.00 55 1012.4
20260903005241 90 296 0.0 0.0 0.00 0.00 0.00 55 1012.4
20260903004737 91 65 0.0 0.0 0.00 0.00 0.00 55 1012.4
20260903004232 91 43 0.0 1.0 0.00 0.00 0.00 54 1012.4
20260903003727 91 340 2.0 2.0 0.00 0.00 0.00 54 1012.4
20260903003223 91 37 0.0 1.0 0.00 0.00 0.00 53 1012.7
20260903002717 92 53 4.0 5.0 0.00 0.00 0.00 52 1012.4
20260903002211 92 16 5.0 6.0 0.00 0.00 0.00 52 1012.4
20260903001707 92 3 5.0 6.0 0.00 0.00 0.00 51 1012.4
20260903001200 93 7 6.0 8.0 0.00 0.00 0.00 51 1012.4
20260903000656 94 348 7.0 8.0 0.00 0.00 0.00 49 1012.7
20260903000150 96 57 2.0 2.0 0.00 0.00 0.00 46 1012.7
20260902235648 100 55 0.0 1.0 0.00 0.00 0.00 40 1012.4
20260902235144 100 228 1.0 1.0 0.00 0.00 0.00 38 1012.0
20260902234638 100 243 1.0 2.0 0.00 0.00 0.00 38 1012.4
20260902234137 101 280 2.0 2.0 0.00 0.00 0.00 37 1012.4
20260902233632 101 238 3.0 3.0 0.00 0.00 0.00 38 1012.0
20260902233126 101 265 0.0 0.0 0.00 0.00 0.00 38 1012.4
20260902232626 101 270 1.0 2.0 0.00 0.00 0.00 38 1012.0
20260902232125 101 202 3.0 3.0 0.00 0.00 0.00 38 1012.4
20260902231624 102 183 1.0 2.0 0.00 0.00 0.00 36 1012.4
20260902231124 101 281 2.0 2.0 0.00 0.00 0.00 37 1012.0
20260902230620 101 210 2.0 3.0 0.00 0.00 0.00 36 1012.0
20260902230118 101 140 2.0 2.0 0.00 0.00 0.00 37 1012.0
20260902225614 102 259 4.0 5.0 0.00 0.00 0.00 36 1012.0
20260902225113 101 246 2.0 2.0 0.00 0.00 0.00 37 1012.0
20260902224612 102 249 2.0 2.0 0.00 0.00 0.00 37 1012.7
20260902224108 101 279 0.0 1.0 0.00 0.00 0.00 38 1012.0
20260902223604 101 208 1.0 2.0 0.00 0.00 0.00 37 1012.0
20260902223103 102 291 2.0 2.0 0.00 0.00 0.00 36 1012.0
20260902222602 103 288 1.0 1.0 0.00 0.00 0.00 35 1012.0
20260902222101 104 200 2.0 2.0 0.00 0.00 0.00 34 1012.0
20260902221555 104 278 1.0 3.0 0.00 0.00 0.00 34 1012.0
20260902221050 102 265 0.0 0.0 0.00 0.00 0.00 36 1012.4
20260902220546 102 199 4.0 6.0 0.00 0.00 0.00 35 1012.4
20260902220040 102 287 2.0 2.0 0.00 0.00 0.00 36 1012.4
20260902215536 102 234 4.0 5.0 0.00 0.00 0.00 37 1012.4
20260902215031 102 251 2.0 3.0 0.00 0.00 0.00 37 1012.4
20260902214526 103 202 2.0 2.0 0.00 0.00 0.00 37 1012.4
20260902214025 104 185 1.0 2.0 0.00 0.00 0.00 36 1012.4
20260902213521 103 231 3.0 3.0 0.00 0.00 0.00 37 1012.4
20260902213020 102 244 3.0 5.0 0.00 0.00 0.00 38 1012.7
20260902212516 101 194 4.0 8.0 0.00 0.00 0.00 39 1012.7
20260902212012 100 241 5.0 7.0 0.00 0.00 0.00 40 1012.7
20260902211508 101 210 2.0 2.0 0.00 0.00 0.00 39 1012.7
20260902211002 103 214 3.0 8.0 0.00 0.00 0.00 38 1012.7
20260902210456 103 226 3.0 3.0 0.00 0.00 0.00 37 1012.7
20260902205955 104 40 3.0 3.0 0.00 0.00 0.00 36 1012.7
20260902205450 104 206 0.0 1.0 0.00 0.00 0.00 34 1012.7
20260902204946 103 255 1.0 1.0 0.00 0.00 0.00 36 1012.7
20260902204445 102 248 0.0 1.0 0.00 0.00 0.00 37 1013.1
20260902203941 102 316 1.0 1.0 0.00 0.00 0.00 37 1013.5
20260902203436 103 222 2.0 2.0 0.00 0.00 0.00 36 1013.1
20260902202935 104 248 4.0 7.0 0.00 0.00 0.00 36 1013.5
20260902202431 103 222 1.0 1.0 0.00 0.00 0.00 37 1013.5
20260902201927 104 245 1.0 2.0 0.00 0.00 0.00 36 1013.5
20260902201422 101 293 1.0 1.0 0.00 0.00 0.00 38 1013.5
20260902200917 101 222 1.0 2.0 0.00 0.00 0.00 38 1013.5
20260902200412 103 215 0.0 1.0 0.00 0.00 0.00 37 1013.8
20260902195907 103 265 0.0 0.0 0.00 0.00 0.00 37 1013.8
20260902195402 102 214 3.0 5.0 0.00 0.00 0.00 37 1013.8
20260902194856 104 307 0.0 0.0 0.00 0.00 0.00 37 1014.1
20260902194357 104 283 1.0 2.0 0.00 0.00 0.00 37 1014.1
20260902193851 104 300 1.0 2.0 0.00 0.00 0.00 36 1014.1
20260902193348 103 259 0.0 0.0 0.00 0.00 0.00 36 1014.1
20260902192846 100 248 2.0 2.0 0.00 0.00 0.00 39 1014.5
20260902192345 100 167 3.0 3.0 0.00 0.00 0.00 39 1014.1
20260902191839 101 191 3.0 3.0 0.00 0.00 0.00 38 1014.5
20260902191335 103 192 4.0 7.0 0.00 0.00 0.00 37 1014.5
20260902190830 102 256 1.0 1.0 0.00 0.00 0.00 38 1014.5
20260902190329 104 175 2.0 3.0 0.00 0.00 0.00 37 1014.8
20260902185826 102 297 1.0 1.0 0.00 0.00 0.00 38 1014.8
20260902185321 104 238 4.0 5.0 0.00 0.00 0.00 36 1014.8
20260902184816 103 238 2.0 2.0 0.00 0.00 0.00 37 1014.8
20260902184312 101 78 3.0 6.0 0.00 0.00 0.00 39 1014.8
20260902183807 101 186 4.0 6.0 0.00 0.00 0.00 39 1015.2
20260902183303 102 193 1.0 1.0 0.00 0.00 0.00 39 1015.2
20260902182759 101 284 1.0 2.0 0.00 0.00 0.00 39 1015.5
20260902182255 100 177 3.0 3.0 0.00 0.00 0.00 40 1015.5
20260902181751 101 226 1.0 2.0 0.00 0.00 0.00 39 1015.5
20260902181246 100 198 2.0 2.0 0.00 0.00 0.00 40 1015.5
20260902180740 101 301 3.0 3.0 0.00 0.00 0.00 40 1015.5